Wind_Speed
6 5 5 8 10 8 13 10 9 10 9 9 9 10 10 9 8 9 9 12 13 14 14 14 15 17 16 18 6 7 2 4 6
8 8 6 8 9 9 13 10 8 8 7 7 7 8 8 5 9 10 12 11 11 11 12 12 12 12 11 14 14 16 21 17 15
10 9 8 9 11 12 10 8 7 7 6 6 7 9 9 6 6 8 10 10 9 11 11 12 11 12 12 12 13 13 14 14 14
12 9 9 10 11 11 9 7 6 6 6 7 7 8 7 5 6 8 8 9 10 11 11 11 10 10 11 12 13 13 13 13 13
13 9 9 8 8 8 7 6 5 6 8 8 7 7 6 4 4 5 6 6 8 8 9 9 9 9 10 11 12 12 12 13 13
9 10 10 10 11 8 7 6 7 7 7 7 6 6 2 3 2 3 2 7 6 7 7 8 8 8 9 9 10 11 11 12 12
9 11 13 12 11 9 8 8 7 8 6 5 7 5 4 3 3 3 4 7 6 6 6 7 7 7 8 8 9 9 10 10 11
11 9 12 12 13 9 9 9 8 8 7 7 7 6 5 4 4 4 6 8 7 6 5 6 7 7 7 7 8 8 8 9 9
12 12 12 12 12 11 11 10 10 9 8 8 7 6 5 4 4 5 8 10 8 6 6 6 6 6 7 6 7 7 7 8 8
13 12 13 13 12 13 12 11 11 10 9 9 8 7 6 6 5 4 7 12 9 6 6 6 5 5 6 6 6 6 6 7 7
15 14 13 13 13 13 13 13 12 11 11 10 9 9 7 7 6 5 5 14 11 7 7 7 6 6 5 5 5 4 5 5 5
16 16 16 15 14 14 13 13 13 12 11 11 10 9 8 8 8 8 8 11 12 10 8 8 8 7 6 4 4 3 2 2 2
19 18 17 16 17 15 15 15 14 14 13 12 11 10 9 9 9 9 9 10 10 13 12 11 9 8 6 6 5 3 1 1 1
20 20 19 18 19 18 17 17 17 16 14 13 11 10 10 10 10 11 12 12 12 11 15 15 12 10 8 6 5 4 1 1 2
23 21 21 20 20 23 20 19 18 17 16 13 12 11 11 12 13 13 13 14 16 14 14 19 15 13 11 8 6 4 2 2 3
24 24 22 23 24 24 26 21 20 18 16 13 11 11 12 14 16 16 16 16 16 16 15 12 13 14 15 12 11 9 7 4 3
26 27 26 26 25 24 28 25 21 20 20 15 11 4 10 17 19 18 18 18 17 17 17 16 15 11 9 12 13 11 9 5 2
27 27 28 25 25 26 27 30 28 23 23 23 9 3 5 8 15 20 18 18 18 17 17 17 15 14 11 12 12 11 11 7 4
28 26 27 28 27 26 28 28 31 25 23 21 26 14 3 3 3 11 18 17 18 17 16 16 17 15 13 12 12 10 8 7 6
25 29 28 28 31 30 28 27 29 30 24 26 13 19 16 12 2 4 7 15 17 17 19 16 16 16 14 13 13 12 11 8 7
Wind_Direction
127 132 127 119 152 146 148 136 121 114 109 110 109 106 96 78 80 86 62 75 70 76 83 70 64 67 59 47 100 31 345 90 50
136 111 131 144 161 143 143 134 125 119 117 121 117 123 95 89 84 80 74 62 67 74 77 69 64 60 54 61 64 57 60 71 72
140 113 129 137 140 139 137 135 132 132 137 136 124 129 114 80 91 90 78 66 81 89 80 75 68 66 64 66 61 58 60 61 62
153 141 140 142 141 150 146 151 147 150 159 153 138 139 116 101 104 116 91 88 95 93 83 76 76 68 68 69 67 64 63 64 60
170 161 172 185 159 164 162 168 167 170 168 163 156 153 131 123 127 103 86 101 104 95 87 84 83 79 75 71 65 61 63 63 60
185 178 186 183 204 191 188 185 181 175 169 173 166 158 202 150 135 116 112 126 108 100 95 91 88 86 80 75 73 70 65 67 63
176 185 191 191 205 195 192 192 182 158 171 182 181 191 197 183 172 153 143 144 123 111 102 95 90 87 84 81 75 69 68 66 67
181 185 186 193 202 188 190 195 190 204 195 186 194 208 195 197 189 187 175 160 139 125 115 114 106 98 91 89 80 69 64 65 64
192 191 189 191 193 195 195 201 202 204 204 202 198 193 196 202 197 213 191 175 156 143 136 133 125 115 109 97 85 72 67 64 57
200 202 199 199 198 202 203 209 205 207 205 205 199 199 201 195 202 213 206 192 183 161 152 146 139 132 123 110 99 80 68 65 66
206 205 207 210 209 208 207 208 208 211 213 209 204 201 203 201 202 200 185 197 203 177 171 165 163 158 145 133 123 108 85 67 55
208 213 211 217 218 215 211 211 210 213 211 208 205 208 208 204 201 196 194 193 207 197 188 181 178 176 171 161 139 129 95 58 42
211 214 214 211 219 218 215 212 211 213 210 209 207 210 209 209 208 203 199 196 201 206 196 188 183 183 184 180 162 149 120 100 342
214 216 216 214 212 218 216 216 211 211 210 212 212 213 215 214 211 211 206 205 202 202 208 202 194 191 185 185 176 166 154 345 324
219 221 220 217 214 216 219 218 215 213 208 212 210 215 218 217 215 215 211 211 206 202 215 212 215 210 200 197 192 192 235 304 302
223 226 225 220 217 210 216 217 215 216 209 198 209 221 224 223 217 215 213 214 209 207 210 213 205 222 216 223 228 233 248 273 282
217 224 227 225 220 216 208 216 211 214 204 193 181 202 214 228 222 217 214 214 212 210 209 211 208 219 229 228 235 243 251 251 270
226 221 223 229 227 223 215 208 209 208 204 200 177 202 225 161 205 214 215 214 210 210 213 211 214 213 212 230 241 243 248 255 278
231 229 227 225 228 230 225 217 212 206 204 203 223 234 193 193 163 210 218 218 214 211 212 211 211 207 211 219 218 225 245 264 292
243 232 232 230 230 229 227 225 219 212 211 205 199 222 227 242 282 159 188 211 216 213 208 208 209 211 206 222 228 238 247 250 286
Height
821 822 823 823 825 827 828 830 831 832 833 835 835 836 837 836 839 839 839 839 839 839 840 840 840 840 840 838 840 840 837 840 840
822 822 823 825 827 828 830 831 832 834 835 836 837 838 838 838 840 840 841 842 842 842 842 842 843 843 842 842 842 842 841 842 842
822 824 826 827 828 829 831 832 834 835 836 837 838 839 839 840 841 841 842 843 843 844 843 843 844 844 845 844 844 844 844 844 844
824 826 828 828 829 830 831 833 834 836 837 838 839 840 840 841 842 842 843 843 844 844 844 844 845 846 846 846 845 845 846 845 846
825 827 829 830 831 831 833 835 835 837 837 839 840 842 842 843 844 843 843 844 845 845 845 845 845 847 847 847 847 847 846 846 847
825 827 829 831 832 833 834 835 836 837 838 839 841 842 843 844 844 843 844 845 847 846 846 847 847 847 848 848 848 847 848 847 847
825 826 828 831 832 833 835 836 837 838 839 840 841 842 844 845 845 844 845 846 847 847 847 848 848 849 849 850 850 850 849 849 847
825 826 827 830 831 833 835 836 837 838 839 840 841 842 843 844 845 844 845 846 847 848 848 849 849 849 851 851 851 851 852 851 850
824 825 827 829 830 832 834 836 837 837 838 839 840 841 843 844 845 844 846 846 847 848 848 849 849 850 850 851 851 852 852 851 852
823 824 826 827 828 830 831 833 834 836 837 838 838 840 841 842 844 844 845 845 847 847 849 850 851 851 851 851 851 852 853 852 852
819 822 824 826 826 828 829 831 832 834 836 836 837 838 840 841 843 843 843 845 846 847 849 849 850 851 852 851 851 851 852 852 853
816 818 820 823 825 826 827 828 830 832 833 833 835 837 838 839 840 841 841 844 845 845 848 848 849 850 851 852 852 852 852 853 853
813 815 816 818 822 824 825 825 827 829 830 831 832 835 836 837 838 840 840 841 843 844 845 846 847 849 851 852 851 852 852 852 853
809 811 812 814 816 820 821 823 824 825 827 829 831 833 834 835 836 837 838 839 841 842 842 844 845 846 849 851 850 850 851 851 852
806 807 808 810 811 814 817 819 821 821 823 826 828 830 831 832 832 834 836 837 838 840 838 840 842 844 846 848 848 849 850 850 850
802 803 804 806 806 806 811 814 817 818 819 823 825 827 828 828 829 830 831 833 834 836 838 838 841 841 842 844 845 845 846 847 848
792 796 799 801 801 802 804 809 811 814 815 817 821 822 824 823 824 826 827 829 831 833 835 837 839 840 839 839 841 843 843 843 845
788 788 792 796 798 797 798 800 803 806 809 810 810 815 813 815 818 821 823 825 827 829 831 833 835 837 840 838 838 839 841 842 842
782 785 787 788 791 793 793 795 796 800 801 805 804 804 807 808 816 817 819 822 823 824 828 829 831 832 835 835 835 835 837 839 841
775 778 781 782 784 786 788 790 792 793 796 795 798 802 803 804 806 809 813 817 818 820 822 824 826 827 830 830 830 832 834 833 836